This demonstration page uses our WeatherBlox Daily Observations layout. Learn more.

Left ArrowRight Arrow

38.83388, -104.82136

Hourly Observations for January 30, 2017

Temp ( °F °C ) Dew Point ( °F °C ) Humidity (%) Winds ( mph kmh ) Pressure ( in mb ) Visibility ( mi km ) Precip ( " mm )
12:58 am 00:58 Clear 40 4.2 11 -11.6 31 31 Calm 29.84 1011 10 16 0.00 0.00
1:58 am 01:58 Clear 39 3.7 11 -11.7 32 32 WNW 6 9 29.82 1010 10 16 0.00 0.00
2:58 am 02:58 Clear 38 3.3 11 -11.6 33 33 Calm 29.82 1010 10 16 0.00 0.00
3:58 am 03:58 Clear 39 3.7 11 -11.6 32 32 WNW 3 6 29.80 1009 10 16 0.00 0.00
4:58 am 04:58 Clear 45 7.3 7 -14 21 21 S 8 13 29.78 1008 10 16 0.00 0.00
5:58 am 05:58 Clear 40 4.3 8 -13.5 26 26 NW 7 11 29.80 1009 10 16 0.00 0.00
6:59 am 06:59 Mostly Clear 41 4.9 9 -13 26 26 W 5 7 29.80 1009 10 16 0.00 0.00
7:58 am 07:58 Sunny 44 6.6 6 -14.3 21 21 WSW 5 7 29.80 1009 10 16 0.00 0.00
8:58 am 08:58 Sunny 49 9.3 7 -13.9 18 18 SE 8 13 29.80 1009 10 16 0.00 0.00
9:58 am 09:58 Sunny 51 10.3 10 -12.2 19 19 SE 10 17 29.80 1009 10 16 0.00 0.00
10:58 am 10:58 Sunny 53 11.5 8 -13.3 16 16 SE 10 17 29.78 1008 10 16 0.00 0.00
11:58 am 11:58 Sunny 54 12 8 -13.6 15 15 SSE 6 9 29.76 1008 10 16 0.00 0.00
12:58 pm 12:58 Sunny 56 13.4 5 -15.1 12 12 SSE 12 19 29.69 1005 10 16 0.00 0.00
1:58 pm 13:58 Sunny 56 13.1 7 -13.7 14 14 SE 8 13 29.70 1006 10 16 0.00 0.00
2:58 pm 14:58 Sunny 55 12.6 7 -14 14 14 S 5 7 29.70 1006 10 16 0.00 0.00
3:58 pm 15:58 Sunny 52 11.2 8 -13.2 17 17 S 9 15 29.71 1006 10 16 0.00 0.00
4:58 pm 16:58 Sunny 51 10.5 8 -13.4 17 17 S 12 19 29.68 1005 10 16 0.00 0.00
5:58 pm 17:58 Clear 48 8.9 10 -12.4 21 21 SW 5 7 29.69 1006 10 16 0.00 0.00
6:58 pm 18:58 Clear 46 7.7 9 -12.6 22 22 NNW 9 15 29.68 1005 10 16 0.00 0.00
7:58 pm 19:58 Clear 43 6.3 12 -11.2 28 28 WNW 3 6 29.69 1005 10 16 0.00 0.00
8:58 pm 20:58 Partly Cloudy 44 6.8 10 -12.1 25 25 W 5 7 29.65 1004 10 16 0.00 0.00
9:58 pm 21:58 Mostly Cloudy 45 7.2 13 -10.6 27 27 S 3 6 29.64 1004 10 16 0.00 0.00
10:58 pm 22:58 Clear 45 7.3 13 -10.3 28 28 NW 5 7 29.61 1003 10 16 0.00 0.00
11:58 pm 23:58 Mostly Cloudy 49 9.3 11 -11.5 22 22 SSW 9 15 29.57 1001 10 16 0.00 0.00

Powered by AerisWeather